DW3039 Karjalohja FI current weather conditions

sailwx.info

Wind from 154 at 2 knots gusting 9

Air temperature 3.3° C
Dewpoint 3.2° C

Last reported at 2016-Feb-10 13:12 UTC.
Time now 2016-Feb-12 03:40 UTC

Location: N 60°16' E 023°41'.
View on Google Maps.

See reports from other nearby stations

  
Tides and Currents Weather Stations Pressure Air Temp Water Temp Dewpoint Dewpoint Depression Visibility Wind Speed Wind Dir Waves Ship Positions
date/time (UTC)wind fromknots sea level pressurealtimeterstation pressurevisibilityair tempwater tempwave heightnotes
2016-Feb-10 13:12 154 2 gusting 9 3.3
2016-Feb-10 13:02 166 2 gusting 7 2.8
2016-Feb-10 12:52 131 1 gusting 8 2.8
2016-Feb-10 12:42 157 1 gusting 9 2.8
2016-Feb-10 12:32 132 1 gusting 9 2.8
2016-Feb-10 12:22 099 1 gusting 5 2.8
2016-Feb-10 12:12 151 2 gusting 5 2.8
2016-Feb-10 12:02 115 2 gusting 6 2.8
2016-Feb-10 11:52 143 1 gusting 6 2.8
2016-Feb-10 11:42 141 3 gusting 6 2.8
2016-Feb-10 11:32 149 2 gusting 8 2.8
2016-Feb-10 11:22 175 1 gusting 11 2.8
2016-Feb-10 11:12 146 3 gusting 7 2.8
2016-Feb-10 11:02 158 1 gusting 9 2.8
2016-Feb-10 10:52 106 4 gusting 9 2.8
2016-Feb-10 10:42 119 4 gusting 13 2.8
2016-Feb-10 10:32 134 3 gusting 8 2.8
2016-Feb-10 10:22 108 3 gusting 12 2.8
2016-Feb-10 10:12 134 3 gusting 7 2.8
2016-Feb-10 10:02 122 4 gusting 7 2.2
2016-Feb-10 09:52 093 1 gusting 6 2.2
2016-Feb-10 09:42 069 2 gusting 6 2.2
2016-Feb-10 09:32 051 2 gusting 7 2.2
2016-Feb-10 09:22 062 4 gusting 8 2.2
2016-Feb-10 09:11 059 3 gusting 7 2.2
2016-Feb-10 09:01 061 4 gusting 6 2.2
2016-Feb-10 08:51 078 2 gusting 6 2.2
2016-Feb-10 08:41 097 1 gusting 6 2.2
2016-Feb-10 08:31 127 2.2
2016-Feb-10 08:21 068 0 gusting 6 2.2
2016-Feb-10 08:11 076 4 gusting 7 2.2
2016-Feb-10 08:01 083 4 gusting 9 2.2
2016-Feb-10 07:51 055 1 gusting 5 2.2
2016-Feb-10 07:41 064 1 gusting 5 2.2
2016-Feb-10 07:31 043 1 gusting 5 2.2
2016-Feb-10 07:21 169 2.2
2016-Feb-10 07:11 086 2.2
2016-Feb-10 07:01 094 2.2
2016-Feb-10 06:51 127 2.2
2016-Feb-10 06:41 128 2.2
2016-Feb-10 06:31 147 0 gusting 5 2.8
2016-Feb-10 06:21 141 1 gusting 5 2.8
2016-Feb-10 06:11 160 0 gusting 5 2.8
2016-Feb-10 06:01 134 0 gusting 5 2.8
2016-Feb-10 05:51 169 2 gusting 6 2.8
2016-Feb-10 05:41 163 1 gusting 8 2.8
2016-Feb-10 05:31 160 2 gusting 7 2.8
2016-Feb-10 05:21 179 2.8
2016-Feb-10 05:11 151 1 gusting 6 2.8
2016-Feb-10 05:01 163 2 gusting 8 2.8
2016-Feb-10 04:51 164 3 gusting 7 2.8
2016-Feb-10 04:41 157 2 gusting 8 2.8
2016-Feb-10 04:31 190 2 gusting 8 2.8
2016-Feb-10 04:21 157 4 gusting 7 2.8
2016-Feb-10 04:11 156 2.8
2016-Feb-10 04:01 171 3 gusting 6 2.8
2016-Feb-10 03:51 157 0 gusting 6 2.8
2016-Feb-10 03:41 157 3 gusting 10 2.8
2016-Feb-10 03:31 135 1 gusting 7 2.8
2016-Feb-10 03:21 170 2 gusting 6 2.8
2016-Feb-10 03:11 173 3 gusting 7 2.8
2016-Feb-10 03:01 156 1 gusting 8 2.8